Clinton, OK

5:56 AM CST on February 13, 2016 (GMT -0600)
Clinton Municipal

Weather History for KCLK - December, 2013

Change the Weather History Date:

Thursday, December 5, 2013

  Actual Average (KCSM) Record (KCSM)
Temperature  
Mean Temperature 24 °F -  
Max Temperature 28 °F 51 °F 70 °F (2001)
Min Temperature 19 °F 32 °F 17 °F (2013)
Degree Days  
Heating Degree Days 42    
Moisture  
Dew Point 5 °F    
Average Humidity 47    
Maximum Humidity 63    
Minimum Humidity 36    
Precipitation  
Precipitation 0.00 in - - ()
Sea Level Pressure  
Sea Level Pressure 30.21 in    
Wind  
Wind Speed 18 mph (North)    
Max Wind Speed 26 mph    
Max Gust Speed 32 mph    
Visibility 10 miles    
Events Snow    
Averages and records for this station are not official NWS values.
T = Trace of Precipitation, MM = Missing Value Source: NWS Daily Summary

Daily Weather History Graph

Daily Weather History Graph

Search for Another Location

Airport or City:

Trip Planner

Search our weather history database for the weather conditions in past years. The results will help you decide how hot, cold, wet, or windy it might be!

Date:

Astronomy

Dec. 05, 2013 Rise Set
Actual Time 7:30 AM CST 5:22 PM CST
Civil Twilight 7:02 AM CST 5:50 PM CST
Nautical Twilight 6:30 AM CST 6:22 PM CST
Astronomical Twilight 5:59 AM CST 6:53 PM CST
Moon 9:54 AM CST (12/5) 8:41 PM CST (12/5)
Length of Visible Light 10h 48m
Length of Day
9h 52m
Waxing Crescent, 11% of the Moon is Illuminated
Dec 5
Waxing Crescent
Dec 9
First Quarter
Dec 17
Full
Dec 25
Last Quarter
Jan 1
New

Hourly Weather History & Observations

Time (CST) Temp. Windchill Dew Point Humidity Pressure Visibility Wind Dir Wind Speed Gust Speed Precip Events Conditions
12:15 AM 28.4 °F 16.6 °F 8.6 °F 43% 30.09 in 10.0 mi North 16.1 mph - N/A   Clear
12:35 AM 28.4 °F 15.1 °F 8.6 °F 43% 30.09 in 10.0 mi North 20.7 mph 25.3 mph N/A   Clear
12:55 AM 28.4 °F 17.0 °F 6.8 °F 40% 30.11 in 10.0 mi North 15.0 mph 25.3 mph N/A   Clear
1:15 AM 28.4 °F 16.6 °F 6.8 °F 40% 30.11 in 10.0 mi North 16.1 mph 21.9 mph N/A   Clear
1:35 AM 26.6 °F 13.4 °F 6.8 °F 43% 30.10 in 10.0 mi North 18.4 mph 24.2 mph N/A   Clear
1:55 AM 26.6 °F 13.1 °F 5.0 °F 40% 30.11 in 10.0 mi North 19.6 mph 25.3 mph N/A   Clear
2:15 AM 26.6 °F 12.0 °F 5.0 °F 40% 30.11 in 10.0 mi North 23.0 mph 28.8 mph N/A   Clear
2:35 AM 26.6 °F 12.0 °F 5.0 °F 40% 30.13 in 10.0 mi North 23.0 mph 28.8 mph N/A   Clear
2:55 AM 24.8 °F 10.7 °F 5.0 °F 43% 30.13 in 10.0 mi North 19.6 mph 25.3 mph N/A   Clear
3:15 AM 24.8 °F 10.7 °F 5.0 °F 43% 30.14 in 10.0 mi North 19.6 mph 24.2 mph N/A   Clear
3:35 AM 24.8 °F 10.7 °F 3.2 °F 40% 30.14 in 10.0 mi North 19.6 mph 27.6 mph N/A   Clear
3:55 AM 24.8 °F 8.7 °F 3.2 °F 40% 30.15 in 10.0 mi North 26.5 mph 32.2 mph N/A   Clear
4:15 AM 24.8 °F 9.6 °F 3.2 °F 40% 30.17 in 10.0 mi North 23.0 mph 27.6 mph N/A   Clear
4:35 AM 24.8 °F 9.3 °F 3.2 °F 40% 30.16 in 10.0 mi North 24.2 mph 31.1 mph N/A   Clear
4:55 AM 24.8 °F 10.3 °F 5.0 °F 43% 30.16 in 10.0 mi North 20.7 mph 25.3 mph N/A   Clear
5:15 AM 23.0 °F 6.9 °F 6.8 °F 50% 30.15 in 10.0 mi North 24.2 mph 29.9 mph N/A   Clear
5:35 AM 23.0 °F 7.2 °F 6.8 °F 50% 30.17 in 10.0 mi North 23.0 mph 29.9 mph N/A   Clear
5:55 AM 23.0 °F 7.6 °F 8.6 °F 54% 30.18 in 10.0 mi North 21.9 mph 27.6 mph N/A   Clear
6:15 AM 23.0 °F 9.2 °F 8.6 °F 54% 30.18 in 10.0 mi North 17.3 mph 24.2 mph N/A   Clear
6:35 AM 21.2 °F 5.2 °F 6.8 °F 54% 30.18 in 10.0 mi North 21.9 mph 31.1 mph N/A   Clear
6:55 AM 21.2 °F 4.5 °F 5.0 °F 50% 30.20 in 10.0 mi North 24.2 mph 31.1 mph N/A   Clear
7:15 AM 21.2 °F 5.2 °F 5.0 °F 50% 30.19 in 10.0 mi North 21.9 mph 29.9 mph N/A   Clear
7:35 AM 21.2 °F 7.3 °F 5.0 °F 50% 30.22 in 10.0 mi North 16.1 mph 25.3 mph N/A   Clear
7:55 AM 21.2 °F 7.3 °F 3.2 °F 46% 30.23 in 10.0 mi NNE 16.1 mph 23.0 mph N/A   Clear
8:15 AM 21.2 °F 5.2 °F 3.2 °F 46% 30.22 in 10.0 mi North 21.9 mph 27.6 mph N/A   Clear
8:35 AM 23.0 °F 7.6 °F 3.2 °F 43% 30.20 in 10.0 mi North 21.9 mph 26.5 mph N/A   Clear
8:55 AM 23.0 °F 9.2 °F 3.2 °F 43% 30.24 in 10.0 mi North 17.3 mph - N/A   Clear
9:15 AM 23.0 °F 8.0 °F 1.4 °F 39% 30.25 in 10.0 mi North 20.7 mph - N/A   Clear
9:35 AM 23.0 °F 8.3 °F 1.4 °F 39% 30.27 in 10.0 mi NNE 19.6 mph - N/A   Clear
9:55 AM 23.0 °F 8.3 °F 1.4 °F 39% 30.26 in 10.0 mi North 19.6 mph 23.0 mph N/A   Scattered Clouds
10:15 AM 23.0 °F 8.3 °F 1.4 °F 39% 30.24 in 10.0 mi North 19.6 mph 26.5 mph N/A   Scattered Clouds
10:35 AM 23.0 °F 8.0 °F 1.4 °F 39% 30.28 in 10.0 mi North 20.7 mph - N/A   Mostly Cloudy
10:55 AM 23.0 °F 8.7 °F 1.4 °F 39% 30.29 in 10.0 mi NNE 18.4 mph 23.0 mph N/A   Mostly Cloudy
11:15 AM 23.0 °F 9.6 °F 1.4 °F 39% 30.27 in 10.0 mi NNE 16.1 mph - N/A   Mostly Cloudy
11:35 AM 23.0 °F 9.2 °F -0.4 °F 36% 30.27 in 10.0 mi North 17.3 mph 24.2 mph N/A   Overcast
11:55 AM 23.0 °F 10.1 °F -0.4 °F 36% 30.28 in 10.0 mi North 15.0 mph - N/A   Overcast
12:15 PM 23.0 °F 11.1 °F -0.4 °F 36% 30.30 in 10.0 mi NNE 12.7 mph - N/A   Overcast
12:35 PM 23.0 °F 12.4 °F 5.0 °F 46% 30.28 in 10.0 mi North 10.4 mph - N/A   Overcast
12:55 PM 24.8 °F 13.4 °F 3.2 °F 40% 30.26 in 10.0 mi North 12.7 mph - N/A   Overcast
1:15 PM 23.0 °F 11.1 °F 1.4 °F 39% 30.25 in 10.0 mi North 12.7 mph - N/A   Overcast
1:35 PM 23.0 °F 9.2 °F -0.4 °F 36% 30.24 in 10.0 mi NNE 17.3 mph - N/A   Overcast
1:55 PM 23.0 °F 9.2 °F -0.4 °F 36% 30.21 in 10.0 mi NNE 17.3 mph - N/A   Overcast
2:15 PM 23.0 °F 10.1 °F 1.4 °F 39% 30.21 in 10.0 mi North 15.0 mph 19.6 mph N/A   Overcast
2:35 PM 23.0 °F 11.1 °F 1.4 °F 39% 30.21 in 10.0 mi North 12.7 mph - N/A   Overcast
2:55 PM 23.0 °F 9.6 °F -0.4 °F 36% 30.21 in 10.0 mi North 16.1 mph - N/A   Overcast
3:15 PM 23.0 °F 9.6 °F -0.4 °F 36% 30.20 in 10.0 mi North 16.1 mph 19.6 mph N/A   Overcast
3:35 PM 23.0 °F 9.6 °F 3.2 °F 43% 30.20 in 7.0 mi North 16.1 mph - N/A Snow Light Snow
3:55 PM 21.2 °F 7.3 °F 5.0 °F 50% 30.19 in 10.0 mi North 16.1 mph 19.6 mph N/A Snow Light Snow
4:15 PM 23.0 °F 9.2 °F 3.2 °F 43% 30.19 in 10.0 mi North 17.3 mph - N/A   Overcast
4:35 PM 21.2 °F 7.8 °F 1.4 °F 42% 30.19 in 10.0 mi North 15.0 mph 20.7 mph N/A   Overcast
4:55 PM 23.0 °F 10.1 °F 1.4 °F 39% 30.19 in 10.0 mi North 15.0 mph - N/A   Overcast
5:15 PM 23.0 °F 9.6 °F 1.4 °F 39% 30.22 in 10.0 mi North 16.1 mph - N/A   Overcast
5:35 PM 21.2 °F 7.8 °F -0.4 °F 39% 30.22 in 10.0 mi North 15.0 mph - N/A   Overcast
5:55 PM 21.2 °F 6.8 °F 5.0 °F 50% 30.23 in 7.0 mi NNE 17.3 mph - N/A Snow Light Snow
6:15 PM 21.2 °F 7.8 °F 6.8 °F 54% 30.23 in 7.0 mi NNE 15.0 mph - N/A Snow Light Snow
6:35 PM 21.2 °F 7.8 °F 8.6 °F 58% 30.24 in 7.0 mi NNE 15.0 mph - N/A Snow Light Snow
6:55 PM 21.2 °F 9.5 °F 8.6 °F 58% 30.25 in 10.0 mi North 11.5 mph - N/A   Overcast
7:15 PM 19.4 °F 6.0 °F 8.6 °F 63% 30.26 in 10.0 mi NNE 13.8 mph 18.4 mph N/A   Overcast
7:35 PM 21.2 °F 7.3 °F 8.6 °F 58% 30.26 in 10.0 mi NNE 16.1 mph - N/A   Overcast
7:55 PM 21.2 °F 8.3 °F 6.8 °F 54% 30.27 in 10.0 mi NNE 13.8 mph - N/A   Overcast
8:15 PM 19.4 °F 5.0 °F 6.8 °F 58% 30.26 in 10.0 mi North 16.1 mph 21.9 mph N/A   Overcast
8:35 PM 19.4 °F 5.5 °F 6.8 °F 58% 30.27 in 10.0 mi North 15.0 mph - N/A   Overcast
8:55 PM 19.4 °F 5.5 °F 6.8 °F 58% 30.27 in 10.0 mi North 15.0 mph - N/A   Overcast
9:15 PM 19.4 °F 5.0 °F 6.8 °F 58% 30.28 in 10.0 mi NNE 16.1 mph - N/A   Overcast
9:35 PM 19.4 °F 6.0 °F 6.8 °F 58% 30.28 in 10.0 mi North 13.8 mph - N/A   Overcast
9:55 PM 19.4 °F 6.0 °F 6.8 °F 58% 30.27 in 10.0 mi NNE 13.8 mph 20.7 mph N/A   Overcast
10:15 PM 19.4 °F 5.5 °F 8.6 °F 63% 30.28 in 10.0 mi North 15.0 mph - N/A   Overcast
10:35 PM 19.4 °F 4.1 °F 8.6 °F 63% 30.27 in 10.0 mi North 18.4 mph - N/A   Overcast
10:55 PM 19.4 °F 4.5 °F 8.6 °F 63% 30.27 in 10.0 mi North 17.3 mph - N/A   Overcast
11:15 PM 19.4 °F 5.0 °F 8.6 °F 63% 30.28 in 10.0 mi North 16.1 mph 20.7 mph N/A   Overcast
11:35 PM 19.4 °F 5.5 °F 8.6 °F 63% 30.28 in 10.0 mi North 15.0 mph - N/A   Overcast
11:55 PM 19.4 °F 3.6 °F 8.6 °F 63% 30.27 in 7.0 mi North 19.6 mph - N/A   Overcast